Year,Month,Day,Hour,Minute,Value (Times are PST for temperature in C)
2015,06,09,00,00,14.50
2015,06,09,00,01,14.40
2015,06,09,00,02,14.40
2015,06,09,00,03,14.40
2015,06,09,00,04,14.30
2015,06,09,00,05,14.30
2015,06,09,00,06,14.30
2015,06,09,00,07,14.20
2015,06,09,00,08,14.20
2015,06,09,00,09,14.20
2015,06,09,00,10,14.10
2015,06,09,00,11,14.10
2015,06,09,00,12,14.10
2015,06,09,00,13,14.10
2015,06,09,00,14,14.10
2015,06,09,00,15,14.00
2015,06,09,00,16,14.00
2015,06,09,00,17,14.00
2015,06,09,00,18,13.90
2015,06,09,00,19,13.90
2015,06,09,00,20,13.90
2015,06,09,00,21,13.90
2015,06,09,00,22,14.00
2015,06,09,00,23,14.00
2015,06,09,00,24,14.00
2015,06,09,00,25,14.00
2015,06,09,00,26,14.00
2015,06,09,00,27,13.90
2015,06,09,00,28,13.90
2015,06,09,00,29,13.90
2015,06,09,00,30,13.90
2015,06,09,00,31,13.90
2015,06,09,00,32,13.90
2015,06,09,00,33,13.90
2015,06,09,00,34,13.90
2015,06,09,00,35,13.90
2015,06,09,00,36,13.80
2015,06,09,00,37,13.80
2015,06,09,00,38,13.80
2015,06,09,00,39,13.80
2015,06,09,00,40,13.70
2015,06,09,00,41,13.70
2015,06,09,00,42,13.70
2015,06,09,00,43,13.60
2015,06,09,00,44,13.60
2015,06,09,00,45,13.60
2015,06,09,00,46,13.60
2015,06,09,00,47,13.60
2015,06,09,00,48,13.60
2015,06,09,00,49,13.60
2015,06,09,00,50,13.50
2015,06,09,00,51,13.50
2015,06,09,00,52,13.50
2015,06,09,00,53,13.50
2015,06,09,00,54,13.50
2015,06,09,00,55,13.50
2015,06,09,00,56,13.50
2015,06,09,00,57,13.50
2015,06,09,00,58,13.50
2015,06,09,00,59,13.50
2015,06,09,01,00,13.50
2015,06,09,01,01,13.50
2015,06,09,01,02,13.40
2015,06,09,01,03,13.40
2015,06,09,01,04,13.40
2015,06,09,01,05,13.40
2015,06,09,01,06,13.40
2015,06,09,01,07,13.40
2015,06,09,01,08,13.40
2015,06,09,01,09,13.40
2015,06,09,01,10,13.40
2015,06,09,01,11,13.40
2015,06,09,01,12,13.40
2015,06,09,01,13,13.40
2015,06,09,01,14,13.50
2015,06,09,01,15,13.50
2015,06,09,01,16,13.50
2015,06,09,01,17,13.60
2015,06,09,01,18,13.60
2015,06,09,01,19,13.60
2015,06,09,01,20,13.70
2015,06,09,01,21,13.70
2015,06,09,01,22,13.70
2015,06,09,01,23,13.70
2015,06,09,01,24,13.70
2015,06,09,01,25,13.70
2015,06,09,01,26,13.70
2015,06,09,01,27,13.80
2015,06,09,01,28,13.80
2015,06,09,01,29,13.80
2015,06,09,01,30,13.80
2015,06,09,01,31,13.80
2015,06,09,01,32,13.80
2015,06,09,01,33,13.80
2015,06,09,01,34,13.80
2015,06,09,01,35,13.80
2015,06,09,01,36,13.80
2015,06,09,01,37,13.80
2015,06,09,01,38,13.80
2015,06,09,01,39,13.80
2015,06,09,01,40,13.80
2015,06,09,01,41,13.80
2015,06,09,01,42,13.80
2015,06,09,01,43,13.70
2015,06,09,01,44,13.70
2015,06,09,01,45,13.70
2015,06,09,01,46,13.70
2015,06,09,01,47,13.70
2015,06,09,01,48,13.70
2015,06,09,01,49,13.70
2015,06,09,01,50,13.70
2015,06,09,01,51,13.70
2015,06,09,01,52,13.70
2015,06,09,01,53,13.70
2015,06,09,01,54,13.70
2015,06,09,01,55,13.70
2015,06,09,01,56,13.70
2015,06,09,01,57,13.70
2015,06,09,01,58,13.70
2015,06,09,01,59,13.70
2015,06,09,02,00,13.70
2015,06,09,02,01,13.70
2015,06,09,02,02,13.70
2015,06,09,02,03,13.70
2015,06,09,02,04,13.70
2015,06,09,02,05,13.70
2015,06,09,02,06,13.70
2015,06,09,02,07,13.70
2015,06,09,02,08,13.60
2015,06,09,02,09,13.60
2015,06,09,02,10,13.60
2015,06,09,02,11,13.60
2015,06,09,02,12,13.60
2015,06,09,02,13,13.60
2015,06,09,02,14,13.60
2015,06,09,02,15,13.60
2015,06,09,02,16,13.60
2015,06,09,02,17,13.60
2015,06,09,02,18,13.50
2015,06,09,02,19,13.50
2015,06,09,02,20,13.50
2015,06,09,02,21,13.40
2015,06,09,02,22,13.40
2015,06,09,02,23,13.40
2015,06,09,02,24,13.40
2015,06,09,02,25,13.40
2015,06,09,02,26,13.30
2015,06,09,02,27,13.30
2015,06,09,02,28,13.30
2015,06,09,02,29,13.30
2015,06,09,02,30,13.30
2015,06,09,02,31,13.30
2015,06,09,02,32,13.30
2015,06,09,02,33,13.30
2015,06,09,02,34,13.20
2015,06,09,02,35,13.20
2015,06,09,02,36,13.20
2015,06,09,02,37,13.20
2015,06,09,02,38,13.20
2015,06,09,02,39,13.10
2015,06,09,02,40,13.10
2015,06,09,02,41,13.10
2015,06,09,02,42,13.00
2015,06,09,02,43,13.00
2015,06,09,02,44,13.00
2015,06,09,02,45,12.90
2015,06,09,02,46,12.90
2015,06,09,02,47,12.90
2015,06,09,02,48,12.90
2015,06,09,02,49,12.80
2015,06,09,02,50,12.80
2015,06,09,02,51,12.80
2015,06,09,02,52,12.70
2015,06,09,02,53,12.70
2015,06,09,02,54,12.70
2015,06,09,02,55,12.70
2015,06,09,02,56,12.60
2015,06,09,02,57,12.60
2015,06,09,02,58,12.60
2015,06,09,02,59,12.60
2015,06,09,03,00,12.50
2015,06,09,03,01,12.50
2015,06,09,03,02,12.50
2015,06,09,03,06,12.40
2015,06,09,03,07,12.40
2015,06,09,03,08,12.40
2015,06,09,03,09,12.40
2015,06,09,03,10,12.30
2015,06,09,03,11,12.30
2015,06,09,03,12,12.30
2015,06,09,03,13,12.30
2015,06,09,03,14,12.30
2015,06,09,03,15,12.30
2015,06,09,03,16,12.30
2015,06,09,03,17,12.30
2015,06,09,03,18,12.30
2015,06,09,03,19,12.30
2015,06,09,03,20,12.30
2015,06,09,03,21,12.30
2015,06,09,03,22,12.30
2015,06,09,03,23,12.30
2015,06,09,03,24,12.30
2015,06,09,03,25,12.30
2015,06,09,03,26,12.30
2015,06,09,03,27,12.30
2015,06,09,03,28,12.30
2015,06,09,03,29,12.30
2015,06,09,03,30,12.30
2015,06,09,03,31,12.30
2015,06,09,03,32,12.20
2015,06,09,03,33,12.20
2015,06,09,03,34,12.20
2015,06,09,03,35,12.20
2015,06,09,03,36,12.20
2015,06,09,03,37,12.20
2015,06,09,03,38,12.20
2015,06,09,03,39,12.20
2015,06,09,03,40,12.10
2015,06,09,03,41,12.10
2015,06,09,03,42,12.10
2015,06,09,03,43,12.10
2015,06,09,03,44,12.10
2015,06,09,03,45,12.10
2015,06,09,03,46,12.10
2015,06,09,03,47,12.10
2015,06,09,03,48,12.10
2015,06,09,03,49,12.10
2015,06,09,03,50,12.10
2015,06,09,03,51,12.10
2015,06,09,03,52,12.10
2015,06,09,03,53,12.10
2015,06,09,03,54,12.10
2015,06,09,03,55,12.10
2015,06,09,03,56,12.10
2015,06,09,03,57,12.10
2015,06,09,03,58,12.10
2015,06,09,03,59,12.10
2015,06,09,04,00,12.10
2015,06,09,04,01,12.10
2015,06,09,04,02,12.10
2015,06,09,04,03,12.00
2015,06,09,04,04,12.00
2015,06,09,04,05,12.00
2015,06,09,04,06,12.00
2015,06,09,04,07,12.00
2015,06,09,04,08,12.00
2015,06,09,04,09,12.00
2015,06,09,04,10,12.00
2015,06,09,04,11,12.00
2015,06,09,04,12,12.00
2015,06,09,04,13,12.00
2015,06,09,04,14,12.10
2015,06,09,04,15,12.10
2015,06,09,04,16,12.10
2015,06,09,04,17,12.10
2015,06,09,04,18,12.10
2015,06,09,04,19,12.10
2015,06,09,04,20,12.10
2015,06,09,04,21,12.10
2015,06,09,04,22,12.10
2015,06,09,04,23,12.10
2015,06,09,04,24,12.10
2015,06,09,04,25,12.10
2015,06,09,04,26,12.10
2015,06,09,04,27,12.10
2015,06,09,04,28,12.10
2015,06,09,04,29,12.10
2015,06,09,04,30,12.10
2015,06,09,04,31,12.10
2015,06,09,04,32,12.10
2015,06,09,04,33,12.10
2015,06,09,04,34,12.10
2015,06,09,04,35,12.10
2015,06,09,04,36,12.20
2015,06,09,04,37,12.20
2015,06,09,04,38,12.20
2015,06,09,04,39,12.20
2015,06,09,04,40,12.20
2015,06,09,04,41,12.20
2015,06,09,04,42,12.20
2015,06,09,04,43,12.20
2015,06,09,04,44,12.20
2015,06,09,04,45,12.30
2015,06,09,04,46,12.30
2015,06,09,04,47,12.40
2015,06,09,04,48,12.40
2015,06,09,04,49,12.50
2015,06,09,04,50,12.50
2015,06,09,04,51,12.60
2015,06,09,04,52,12.60
2015,06,09,04,53,12.70
2015,06,09,04,54,12.70
2015,06,09,04,55,12.70
2015,06,09,04,56,12.80
2015,06,09,04,57,12.80
2015,06,09,04,58,12.90
2015,06,09,04,59,13.00
2015,06,09,05,00,13.00
2015,06,09,05,01,13.10
2015,06,09,05,02,13.20
2015,06,09,05,03,13.20
2015,06,09,05,04,13.20
2015,06,09,05,05,13.30
2015,06,09,05,06,13.40
2015,06,09,05,07,13.40
2015,06,09,05,08,13.40
2015,06,09,05,09,13.50
2015,06,09,05,10,13.50
2015,06,09,05,11,13.50
2015,06,09,05,12,13.60
2015,06,09,05,13,13.60
2015,06,09,05,14,13.60
2015,06,09,05,15,13.60
2015,06,09,05,16,13.60
2015,06,09,05,17,13.60
2015,06,09,05,18,13.60
2015,06,09,05,19,13.50
2015,06,09,05,20,13.50
2015,06,09,05,21,13.50
2015,06,09,05,22,13.50
2015,06,09,05,23,13.50
2015,06,09,05,24,13.50
2015,06,09,05,25,13.50
2015,06,09,05,26,13.50
2015,06,09,05,27,13.40
2015,06,09,05,28,13.50
2015,06,09,05,29,13.50
2015,06,09,05,30,13.50
2015,06,09,05,31,13.50
2015,06,09,05,32,13.50
2015,06,09,05,33,13.50
2015,06,09,05,34,13.50
2015,06,09,05,35,13.60
2015,06,09,05,36,13.60
2015,06,09,05,37,13.70
2015,06,09,05,38,13.70
2015,06,09,05,39,13.80
2015,06,09,05,40,13.80
2015,06,09,05,41,13.80
2015,06,09,05,42,13.80
2015,06,09,05,43,13.90
2015,06,09,05,44,13.90
2015,06,09,05,45,13.90
2015,06,09,05,46,14.00
2015,06,09,05,47,14.00
2015,06,09,05,48,14.00
2015,06,09,05,49,14.10
2015,06,09,05,50,14.20
2015,06,09,05,51,14.20
2015,06,09,05,52,14.20
2015,06,09,05,53,14.30
2015,06,09,05,54,14.30
2015,06,09,05,55,14.30
2015,06,09,05,56,14.40
2015,06,09,05,57,14.40
2015,06,09,05,58,14.50
2015,06,09,05,59,14.50
2015,06,09,06,00,14.60
2015,06,09,06,01,14.70
2015,06,09,06,02,14.70
2015,06,09,06,03,14.80
2015,06,09,06,04,14.90
2015,06,09,06,05,15.00
2015,06,09,06,06,15.00
2015,06,09,06,07,15.00
2015,06,09,06,08,15.00
2015,06,09,06,09,15.00
2015,06,09,06,10,15.10
2015,06,09,06,11,15.20
2015,06,09,06,12,15.20
2015,06,09,06,13,15.30
2015,06,09,06,14,15.30
2015,06,09,06,15,15.30
2015,06,09,06,16,15.30
2015,06,09,06,17,15.30
2015,06,09,06,18,15.30
2015,06,09,06,19,15.30
2015,06,09,06,20,15.30
2015,06,09,06,21,15.30
2015,06,09,06,22,15.30
2015,06,09,06,23,15.30
2015,06,09,06,24,15.30
2015,06,09,06,25,15.40
2015,06,09,06,26,15.40
2015,06,09,06,27,15.40
2015,06,09,06,28,15.40
2015,06,09,06,29,15.50
2015,06,09,06,30,15.50
2015,06,09,06,31,15.50
2015,06,09,06,32,15.50
2015,06,09,06,33,15.40
2015,06,09,06,34,15.50
2015,06,09,06,35,15.50
2015,06,09,06,36,15.50
2015,06,09,06,37,15.50
2015,06,09,06,38,15.50
2015,06,09,06,39,15.50
2015,06,09,06,40,15.50
2015,06,09,06,41,15.50
2015,06,09,06,42,15.60
2015,06,09,06,43,15.60
2015,06,09,06,44,15.60
2015,06,09,06,45,15.60
2015,06,09,06,46,15.70
2015,06,09,06,47,15.70
2015,06,09,06,48,15.80
2015,06,09,06,49,15.80
2015,06,09,06,50,15.90
2015,06,09,06,51,16.00
2015,06,09,06,52,16.10
2015,06,09,06,53,16.20
2015,06,09,06,54,16.30
2015,06,09,06,55,16.40
2015,06,09,06,56,16.40
2015,06,09,06,57,16.50
2015,06,09,06,58,16.50
2015,06,09,06,59,16.60
2015,06,09,07,00,16.60
2015,06,09,07,01,16.70
2015,06,09,07,02,16.70
2015,06,09,07,03,16.70
2015,06,09,07,04,16.70
2015,06,09,07,05,16.70
2015,06,09,07,06,16.80
2015,06,09,07,07,16.80
2015,06,09,07,08,16.80
2015,06,09,07,09,16.80
2015,06,09,07,10,16.90
2015,06,09,07,11,16.90
2015,06,09,07,12,16.90
2015,06,09,07,13,17.00
2015,06,09,07,14,17.00
2015,06,09,07,15,17.10
2015,06,09,07,16,17.10
2015,06,09,07,17,17.20
2015,06,09,07,18,17.20
2015,06,09,07,19,17.30
2015,06,09,07,20,17.30
2015,06,09,07,21,17.40
2015,06,09,07,22,17.50
2015,06,09,07,23,17.60
2015,06,09,07,24,17.70
2015,06,09,07,25,17.70
2015,06,09,07,26,17.80
2015,06,09,07,27,17.90
2015,06,09,07,28,18.00
2015,06,09,07,29,18.00
2015,06,09,07,30,18.00
2015,06,09,07,31,18.10
2015,06,09,07,32,18.10
2015,06,09,07,33,18.10
2015,06,09,07,34,18.10
2015,06,09,07,35,18.10
2015,06,09,07,36,18.10
2015,06,09,07,37,18.20
2015,06,09,07,38,18.20
2015,06,09,07,39,18.20
2015,06,09,07,40,18.20
2015,06,09,07,41,18.20
2015,06,09,07,42,18.20
2015,06,09,07,43,18.20
2015,06,09,07,44,18.20
2015,06,09,07,45,18.20
2015,06,09,07,46,18.30
2015,06,09,07,47,18.40
2015,06,09,07,48,18.50
2015,06,09,07,49,18.60
2015,06,09,07,50,18.70
2015,06,09,07,51,18.70
2015,06,09,07,52,18.60
2015,06,09,07,53,18.60
2015,06,09,07,54,18.50
2015,06,09,07,55,18.40
2015,06,09,07,56,18.40
2015,06,09,07,57,18.40
2015,06,09,07,58,18.30
2015,06,09,07,59,18.30
2015,06,09,08,00,18.30
2015,06,09,08,01,18.30
2015,06,09,08,02,18.30
2015,06,09,08,03,18.30
2015,06,09,08,04,18.30
2015,06,09,08,05,18.40
2015,06,09,08,06,18.50
2015,06,09,08,07,18.60
2015,06,09,08,08,18.60
2015,06,09,08,09,18.70
2015,06,09,08,10,18.80
2015,06,09,08,11,18.80
2015,06,09,08,12,18.90
2015,06,09,08,13,18.90
2015,06,09,08,14,18.90
2015,06,09,08,15,18.90
2015,06,09,08,16,18.90
2015,06,09,08,17,18.90
2015,06,09,08,18,18.80
2015,06,09,08,19,18.80
2015,06,09,08,20,18.90
2015,06,09,08,21,18.90
2015,06,09,08,22,19.00
2015,06,09,08,23,19.00
2015,06,09,08,24,18.90
2015,06,09,08,25,18.90
2015,06,09,08,26,18.90
2015,06,09,08,27,18.90
2015,06,09,08,28,19.00
2015,06,09,08,29,19.00
2015,06,09,08,30,19.00
2015,06,09,08,31,19.00
2015,06,09,08,32,19.10
2015,06,09,08,33,19.10
2015,06,09,08,34,19.20
2015,06,09,08,35,19.30
2015,06,09,08,36,19.30
2015,06,09,08,37,19.40
2015,06,09,08,38,19.40
2015,06,09,08,39,19.50
2015,06,09,08,40,19.50
2015,06,09,08,41,19.50
2015,06,09,08,42,19.60
2015,06,09,08,43,19.60
2015,06,09,08,44,19.60
2015,06,09,08,45,19.60
2015,06,09,08,46,19.50
2015,06,09,08,47,19.30
2015,06,09,08,48,19.20
2015,06,09,08,49,19.10
2015,06,09,08,50,19.10
2015,06,09,08,51,19.10
2015,06,09,08,52,19.10
2015,06,09,08,53,19.20
2015,06,09,08,54,19.20
2015,06,09,08,55,19.20
2015,06,09,08,56,19.20
2015,06,09,08,57,19.20
2015,06,09,08,58,19.10
2015,06,09,08,59,19.10
2015,06,09,09,00,19.10
2015,06,09,09,01,19.10
2015,06,09,09,02,19.10
2015,06,09,09,03,19.10
2015,06,09,09,04,19.20
2015,06,09,09,05,19.30
2015,06,09,09,06,19.30
2015,06,09,09,07,19.30
2015,06,09,09,08,19.40
2015,06,09,09,09,19.50
2015,06,09,09,10,19.60
2015,06,09,09,11,19.70
2015,06,09,09,12,19.80
2015,06,09,09,13,19.90
2015,06,09,09,14,19.90
2015,06,09,09,15,19.90
2015,06,09,09,16,20.00
2015,06,09,09,17,20.00
2015,06,09,09,18,20.00
2015,06,09,09,19,20.10
2015,06,09,09,20,20.20
2015,06,09,09,21,20.20
2015,06,09,09,22,20.20
2015,06,09,09,23,20.30
2015,06,09,09,24,20.40
2015,06,09,09,25,20.40
2015,06,09,09,26,20.40
2015,06,09,09,27,20.50
2015,06,09,09,28,20.50
2015,06,09,09,29,20.60
2015,06,09,09,30,20.60
2015,06,09,09,31,20.70
2015,06,09,09,32,20.80
2015,06,09,09,33,20.80
2015,06,09,09,34,20.90
2015,06,09,09,35,21.00
2015,06,09,09,36,21.00
2015,06,09,09,37,21.10
2015,06,09,09,38,21.20
2015,06,09,09,39,21.20
2015,06,09,09,40,21.30
2015,06,09,09,41,21.40
2015,06,09,09,42,21.40
2015,06,09,09,43,21.50
2015,06,09,09,44,21.60
2015,06,09,09,45,21.70
2015,06,09,09,46,21.70
2015,06,09,09,47,21.60
2015,06,09,09,48,21.40
2015,06,09,09,49,21.40
2015,06,09,09,50,21.40
2015,06,09,09,51,21.30
2015,06,09,09,52,21.30
2015,06,09,09,53,21.30
2015,06,09,09,54,21.40
2015,06,09,09,55,21.30
2015,06,09,09,56,21.30
2015,06,09,09,57,21.30
2015,06,09,09,58,21.30
2015,06,09,09,59,21.30
2015,06,09,10,00,21.40
2015,06,09,10,01,21.50
2015,06,09,10,02,21.60
2015,06,09,10,03,21.70
2015,06,09,10,04,21.70
2015,06,09,10,05,21.70
2015,06,09,10,06,21.70
2015,06,09,10,07,21.80
2015,06,09,10,08,21.80
2015,06,09,10,09,21.80
2015,06,09,10,10,21.80
2015,06,09,10,11,21.90
2015,06,09,10,12,22.00
2015,06,09,10,13,22.10
2015,06,09,10,14,22.10
2015,06,09,10,15,22.00
2015,06,09,10,16,22.00
2015,06,09,10,17,22.00
2015,06,09,10,18,21.90
2015,06,09,10,19,21.90
2015,06,09,10,20,21.80
2015,06,09,10,21,21.80
2015,06,09,10,22,21.80
2015,06,09,10,23,21.80
2015,06,09,10,24,21.80
2015,06,09,10,25,21.80
2015,06,09,10,26,21.80
2015,06,09,10,27,21.90
2015,06,09,10,28,21.90
2015,06,09,10,29,22.00
2015,06,09,10,30,22.10
2015,06,09,10,31,22.20
2015,06,09,10,32,22.20
2015,06,09,10,33,22.30
2015,06,09,10,34,22.40
2015,06,09,10,35,22.40
2015,06,09,10,36,22.50
2015,06,09,10,37,22.60
2015,06,09,10,38,22.60
2015,06,09,10,39,22.70
2015,06,09,10,40,22.70
2015,06,09,10,41,22.60
2015,06,09,10,42,22.60
2015,06,09,10,43,22.60
2015,06,09,10,44,22.70
2015,06,09,10,45,22.70
2015,06,09,10,46,22.70
2015,06,09,10,47,22.60
2015,06,09,10,48,22.60
2015,06,09,10,49,22.60
2015,06,09,10,50,22.60
2015,06,09,10,51,22.50
2015,06,09,10,52,22.50
2015,06,09,10,53,22.50
2015,06,09,10,54,22.50
2015,06,09,10,55,22.60
2015,06,09,10,56,22.70
2015,06,09,10,57,22.60
2015,06,09,10,58,22.60
2015,06,09,10,59,22.60
2015,06,09,11,00,22.60
2015,06,09,11,01,22.60
2015,06,09,11,02,22.60
2015,06,09,11,03,22.70
2015,06,09,11,04,22.70
2015,06,09,11,05,22.80
2015,06,09,11,06,22.80
2015,06,09,11,07,22.70
2015,06,09,11,08,22.70
2015,06,09,11,09,22.80
2015,06,09,11,10,22.80
2015,06,09,11,11,22.80
2015,06,09,11,12,22.80
2015,06,09,11,13,22.80
2015,06,09,11,14,22.70
2015,06,09,11,15,22.70
2015,06,09,11,16,22.70
2015,06,09,11,17,22.70
2015,06,09,11,18,22.80
2015,06,09,11,19,22.80
2015,06,09,11,20,22.70
2015,06,09,11,21,22.80
2015,06,09,11,22,22.80
2015,06,09,11,23,22.90
2015,06,09,11,24,22.90
2015,06,09,11,25,23.00
2015,06,09,11,26,23.00
2015,06,09,11,27,23.00
2015,06,09,11,28,23.10
2015,06,09,11,29,23.10
2015,06,09,11,30,23.10
2015,06,09,11,31,23.10
2015,06,09,11,32,23.10
2015,06,09,11,33,23.10
2015,06,09,11,34,23.10
2015,06,09,11,35,23.10
2015,06,09,11,36,23.10
2015,06,09,11,37,23.20
2015,06,09,11,38,23.30
2015,06,09,11,39,23.40
2015,06,09,11,40,23.50
2015,06,09,11,41,23.50
2015,06,09,11,42,23.40
2015,06,09,11,43,23.40
2015,06,09,11,44,23.30
2015,06,09,11,45,23.30
2015,06,09,11,46,23.20
2015,06,09,11,47,23.10
2015,06,09,11,48,23.00
2015,06,09,11,49,22.90
2015,06,09,11,50,22.90
2015,06,09,11,51,23.00
2015,06,09,11,52,23.10
2015,06,09,11,53,23.10
2015,06,09,11,54,23.10
2015,06,09,11,55,22.90
2015,06,09,11,56,22.70
2015,06,09,11,57,22.60
2015,06,09,11,58,22.50
2015,06,09,11,59,22.40
2015,06,09,12,00,22.40
2015,06,09,12,01,22.30
2015,06,09,12,02,22.40
2015,06,09,12,03,22.50
2015,06,09,12,04,22.60
2015,06,09,12,05,22.60
2015,06,09,12,06,22.60
2015,06,09,12,07,22.50
2015,06,09,12,08,22.40
2015,06,09,12,09,22.40
2015,06,09,12,10,22.40
2015,06,09,12,11,22.30
2015,06,09,12,12,22.40
2015,06,09,12,13,22.60
2015,06,09,12,14,22.60
2015,06,09,12,15,22.60
2015,06,09,12,16,22.50
2015,06,09,12,17,22.40
2015,06,09,12,18,22.30
2015,06,09,12,19,22.40
2015,06,09,12,20,22.40
2015,06,09,12,21,22.40
2015,06,09,12,22,22.40
2015,06,09,12,23,22.30
2015,06,09,12,24,22.20
2015,06,09,12,25,22.30
2015,06,09,12,26,22.30
2015,06,09,12,27,22.30
2015,06,09,12,28,22.20
2015,06,09,12,29,22.10
2015,06,09,12,30,22.10
2015,06,09,12,31,22.10
2015,06,09,12,32,22.20
2015,06,09,12,33,22.30
2015,06,09,12,34,22.40
2015,06,09,12,35,22.40
2015,06,09,12,36,22.50
2015,06,09,12,37,22.60
2015,06,09,12,38,22.60
2015,06,09,12,39,22.70
2015,06,09,12,40,22.70
2015,06,09,12,41,22.70
2015,06,09,12,42,22.70
2015,06,09,12,43,22.70
2015,06,09,12,44,22.60
2015,06,09,12,45,22.60
2015,06,09,12,46,22.70
2015,06,09,12,47,22.80
2015,06,09,12,48,22.80
2015,06,09,12,49,22.70
2015,06,09,12,50,22.70
2015,06,09,12,51,22.60
2015,06,09,12,52,22.50
2015,06,09,12,53,22.40
2015,06,09,12,54,22.40
2015,06,09,12,55,22.40
2015,06,09,12,56,22.30
2015,06,09,12,57,22.30
2015,06,09,12,58,22.40
2015,06,09,12,59,22.50
2015,06,09,13,00,22.50
2015,06,09,13,01,22.60
2015,06,09,13,02,22.60
2015,06,09,13,03,22.60
2015,06,09,13,04,22.60
2015,06,09,13,05,22.60
2015,06,09,13,06,22.70
2015,06,09,13,07,22.70
2015,06,09,13,08,22.60
2015,06,09,13,09,22.60
2015,06,09,13,10,22.60
2015,06,09,13,11,22.60
2015,06,09,13,12,22.50
2015,06,09,13,13,22.50
2015,06,09,13,14,22.30
2015,06,09,13,15,22.20
2015,06,09,13,16,22.00
2015,06,09,13,17,21.90
2015,06,09,13,18,21.90
2015,06,09,13,19,22.00
2015,06,09,13,20,22.00
2015,06,09,13,21,22.10
2015,06,09,13,22,22.20
2015,06,09,13,23,22.30
2015,06,09,13,24,22.30
2015,06,09,13,25,22.20
2015,06,09,13,26,22.20
2015,06,09,13,27,22.10
2015,06,09,13,28,22.00
2015,06,09,13,29,21.80
2015,06,09,13,30,21.70
2015,06,09,13,31,21.70
2015,06,09,13,32,21.70
2015,06,09,13,33,21.70
2015,06,09,13,34,21.70
2015,06,09,13,35,21.70
2015,06,09,13,36,21.70
2015,06,09,13,37,21.70
2015,06,09,13,38,21.70
2015,06,09,13,39,21.70
2015,06,09,13,40,21.60
2015,06,09,13,41,21.60
2015,06,09,13,42,21.60
2015,06,09,13,43,21.60
2015,06,09,13,44,21.70
2015,06,09,13,45,21.80
2015,06,09,13,46,21.80
2015,06,09,13,47,21.80
2015,06,09,13,48,21.70
2015,06,09,13,49,21.50
2015,06,09,13,50,21.50
2015,06,09,13,51,21.60
2015,06,09,13,52,21.70
2015,06,09,13,53,21.80
2015,06,09,13,54,21.90
2015,06,09,13,55,22.00
2015,06,09,13,56,22.00
2015,06,09,13,57,22.00
2015,06,09,13,58,22.00
2015,06,09,13,59,21.90
2015,06,09,14,00,21.90
2015,06,09,14,01,21.80
2015,06,09,14,02,21.80
2015,06,09,14,03,21.90
2015,06,09,14,04,21.90
2015,06,09,14,05,21.90
2015,06,09,14,06,21.90
2015,06,09,14,07,21.80
2015,06,09,14,08,21.70
2015,06,09,14,09,21.60
2015,06,09,14,10,21.50
2015,06,09,14,11,21.50
2015,06,09,14,12,21.40
2015,06,09,14,13,21.40
2015,06,09,14,14,21.40
2015,06,09,14,15,21.50
2015,06,09,14,16,21.50
2015,06,09,14,17,21.60
2015,06,09,14,18,21.70
2015,06,09,14,19,21.70
2015,06,09,14,20,21.70
2015,06,09,14,21,21.60
2015,06,09,14,22,21.50
2015,06,09,14,23,21.50
2015,06,09,14,24,21.50
2015,06,09,14,25,21.50
2015,06,09,14,26,21.60
2015,06,09,14,27,21.60
2015,06,09,14,28,21.70
2015,06,09,14,29,21.70
2015,06,09,14,30,21.70
2015,06,09,14,31,21.70
2015,06,09,14,32,21.80
2015,06,09,14,33,21.80
2015,06,09,14,34,21.80
2015,06,09,14,35,21.70
2015,06,09,14,36,21.70
2015,06,09,14,37,21.70
2015,06,09,14,38,21.70
2015,06,09,14,39,21.70
2015,06,09,14,40,21.70
2015,06,09,14,41,21.70
2015,06,09,14,42,21.60
2015,06,09,14,43,21.50
2015,06,09,14,44,21.40
2015,06,09,14,45,21.40
2015,06,09,14,46,21.40
2015,06,09,14,47,21.50
2015,06,09,14,48,21.60
2015,06,09,14,49,21.70
2015,06,09,14,50,21.70
2015,06,09,14,51,21.60
2015,06,09,14,52,21.50
2015,06,09,14,53,21.50
2015,06,09,14,54,21.40
2015,06,09,14,55,21.30
2015,06,09,14,56,21.30
2015,06,09,14,57,21.30
2015,06,09,14,58,21.20
2015,06,09,14,59,21.20
2015,06,09,15,00,21.10
2015,06,09,15,01,21.10
2015,06,09,15,02,21.10
2015,06,09,15,03,21.10
2015,06,09,15,04,21.10
2015,06,09,15,05,21.30
2015,06,09,15,06,21.40
2015,06,09,15,07,21.50
2015,06,09,15,08,21.60
2015,06,09,15,09,21.60
2015,06,09,15,10,21.70
2015,06,09,15,11,21.80
2015,06,09,15,12,21.80
2015,06,09,15,13,21.80
2015,06,09,15,14,21.80
2015,06,09,15,15,21.70
2015,06,09,15,16,21.80
2015,06,09,15,17,21.80
2015,06,09,15,18,21.90
2015,06,09,15,19,22.00
2015,06,09,15,20,22.10
2015,06,09,15,21,22.10
2015,06,09,15,22,22.10
2015,06,09,15,23,22.10
2015,06,09,15,24,22.10
2015,06,09,15,25,22.10
2015,06,09,15,26,22.10
2015,06,09,15,27,21.90
2015,06,09,15,28,21.90
2015,06,09,15,29,21.80
2015,06,09,15,30,21.80
2015,06,09,15,31,21.80
2015,06,09,15,32,21.70
2015,06,09,15,33,21.70
2015,06,09,15,34,21.60
2015,06,09,15,35,21.60
2015,06,09,15,36,21.70
2015,06,09,15,37,21.80
2015,06,09,15,38,21.80
2015,06,09,15,39,21.90
2015,06,09,15,40,22.00
2015,06,09,15,41,22.00
2015,06,09,15,42,22.10
2015,06,09,15,43,22.10
2015,06,09,15,44,22.10
2015,06,09,15,45,22.00
2015,06,09,15,46,21.90
2015,06,09,15,47,21.80
2015,06,09,15,48,21.70
2015,06,09,15,49,21.70
2015,06,09,15,50,21.70
2015,06,09,15,51,21.70
2015,06,09,15,52,21.70
2015,06,09,15,53,21.60
2015,06,09,15,54,21.60
2015,06,09,15,55,21.70
2015,06,09,15,56,21.70
2015,06,09,15,57,21.80
2015,06,09,15,58,21.70
2015,06,09,15,59,21.60
2015,06,09,16,00,21.60
2015,06,09,16,01,21.60
2015,06,09,16,02,21.60
2015,06,09,16,03,21.70
2015,06,09,16,04,21.80
2015,06,09,16,05,21.80
2015,06,09,16,06,21.80
2015,06,09,16,07,21.80
2015,06,09,16,08,21.80
2015,06,09,16,09,21.80
2015,06,09,16,10,21.80
2015,06,09,16,11,21.80
2015,06,09,16,12,21.80
2015,06,09,16,13,21.80
2015,06,09,16,14,21.80
2015,06,09,16,15,21.90
2015,06,09,16,16,21.90
2015,06,09,16,17,22.00
2015,06,09,16,18,22.00
2015,06,09,16,19,22.00
2015,06,09,16,20,21.90
2015,06,09,16,21,21.90
2015,06,09,16,22,21.80
2015,06,09,16,23,21.80
2015,06,09,16,24,21.80
2015,06,09,16,25,21.80
2015,06,09,16,26,21.80
2015,06,09,16,27,21.80
2015,06,09,16,28,21.70
2015,06,09,16,29,21.70
2015,06,09,16,30,21.70
2015,06,09,16,31,21.70
2015,06,09,16,32,21.70
2015,06,09,16,33,21.60
2015,06,09,16,34,21.50
2015,06,09,16,35,21.40
2015,06,09,16,36,21.40
2015,06,09,16,37,21.40
2015,06,09,16,38,21.50
2015,06,09,16,39,21.50
2015,06,09,16,40,21.50
2015,06,09,16,41,21.60
2015,06,09,16,42,21.60
2015,06,09,16,43,21.70
2015,06,09,16,44,21.70
2015,06,09,16,45,21.80
2015,06,09,16,46,21.90
2015,06,09,16,47,22.00
2015,06,09,16,48,22.10
2015,06,09,16,49,22.10
2015,06,09,16,50,22.10
2015,06,09,16,51,22.10
2015,06,09,16,52,22.10
2015,06,09,16,53,22.10
2015,06,09,16,54,22.10
2015,06,09,16,55,22.10
2015,06,09,16,56,22.00
2015,06,09,16,57,21.90
2015,06,09,16,58,21.90
2015,06,09,16,59,21.80
2015,06,09,17,00,21.80
2015,06,09,17,01,21.80
2015,06,09,17,02,21.80
2015,06,09,17,03,21.80
2015,06,09,17,04,21.80
2015,06,09,17,05,21.80
2015,06,09,17,06,21.80
2015,06,09,17,07,21.80
2015,06,09,17,08,21.80
2015,06,09,17,09,21.80
2015,06,09,17,10,21.80
2015,06,09,17,11,21.80
2015,06,09,17,12,21.80
2015,06,09,17,13,21.80
2015,06,09,17,14,21.80
2015,06,09,17,15,21.80
2015,06,09,17,16,21.80
2015,06,09,17,17,21.80
2015,06,09,17,18,21.80
2015,06,09,17,19,21.80
2015,06,09,17,20,21.80
2015,06,09,17,21,21.80
2015,06,09,17,22,21.80